STARLINK-32508, 62158

Orbit data source: Space-Track

STARLINK-32508, 62158 is a payload satellite owned by SpaceX/Seattle (US) in LEO that was launched on Sat, 30 Nov 2024 UTC via an FALCON 9 launch vehicle from the Air Force Eastern Test Range (AFETR). Payload-class satellites include a variety of spacecraft equipped with specific instruments for various scientific and technological missions. These include communications satellites like Starlink; space stations such as the ISS; scientific satellites like the Hubble; Earth observation satellites from companies like Planet Labs, Umbra, and HawkEye 360; GPS; miniature CubeSats for education and research; and military/defense satellites.

Loading next visibility...
Identifier
62158, 2024-224V
Orbit
LEO
Country
Flag of USUS
Related business
Manufacturer
SpaceX/Seattle
Mission
Operational Commercial Communications
Bus & Motor
STARLINK V2M, Unknown motor
Mass
730 kg wet, ~700 kg dry
Launch date (UTC)
2024-11-30 (1 year ago)
Launch vehicle
FALCON 9
Launch site
Air Force Eastern Test Range (AFETR)
Object type
Payload
Rocket body
Debris
Shape & HBR
Box + 2 Pan, 17.7 m
Radar Cross Section
33.884 m², Large (>1 m²)

Expand to show TLE details & history
Last TLE update: 23 hours ago

TLE from 23 hours ago
0 STARLINK-32508
1 62158U 24224V   25348.84269646  .00013885  00000-0  51324-3 0  9996
2 62158  43.0012 277.2842 0001397 256.2128 103.8568 15.27573406 59502
Epoch: 2025-12-14T20:13Z
TLE epoch observation values (Epoch: 2025-12-14T20:13:28.974Z)
Latitude
-0.00002°
Longitude
-109.83635°
Altitude
483.074 km
Speed
7.626 km/s
True Right ascension
18h 29m 08s
True Declination
0° 00' 00"
Sunlit
Object was in daylight at epoch
Visualization orbit readout
Latitude
Unknown
Longitude
Unknown
Altitude
Unknown
Speed
Unknown
Apparent Right ascension
Unknown
Apparent Declination
Unknown
Sunlit
N/A
Visualization observer readout
Local Sidereal Time
17:25:42
Azimuth
Unknown
Elevation
Unknown
Doppler factor
Unknown
Orbital elements
Apogee altitude
485.973 km
Perigee altitude
484.055 km
Semi-major axis
6,863.151 km
Eccentricity
0.00014
Inclination
43.0012°
RAAN
277.2842°
Arg. of periapsis
256.2128°
True anomaly
103.87234°
Mean anomaly
103.8568°
Eccentric anomaly
103.86457°
Mean motion
3.81731 °/min
Orbital period
94.31 mins
BSTAR
0.00051324
Loading maneuver chart data...
Computing Atmospheric mass density...
Loading historical data...
Loading historical data...
Loading historical data...
Loading historical data...
Loading historical data...
Loading historical data...
Loading historical data...

Documentation

Showing up to 5 results
|